Location: *
(13.5167°S, 71.9667°W)
Time: 10:14:17
(UTC+00:00)

Daily predictions for brighter satellites

Satellite Brightness Start Highest point End
(mag) Time Altitude Azimuth Time Altitude Azimuth Time Altitude Azimuth
YAOGAN 6 2.4 23:06:20 10° SSE 23:09:51 73° E 23:13:21 10° N
GPS 2-18 Rocket1 3.3 23:06:10 10° WSW 23:09:57 61° SSE 23:13:49 10° E
SL-4 R/B 1.7 23:06:37 10° SSW 23:10:24 70° SE 23:13:54 10° NE
ADEOS Rocket 3.6 23:07:00 10° N 23:12:38 59° WNW 23:18:03 10° SSW
Feng Yun 1-1 Rocket 4.4 23:07:57 10° SSE 23:13:51 90° WSW 23:19:32 10° NNW
Cosmos 1025 Rocket 3.1 23:09:54 10° N 23:14:04 54° E 23:18:15 10° SSE
YAOGAN 1 3.8 23:14:46 10° SE 23:18:00 20° E 23:21:13 10° NNE
Cosmos 1455 Rocket 3.3 23:15:51 10° S 23:20:02 47° E 23:24:11 10° NNE
Aurora 2 Rocket 4.5 23:20:37 10° NNE 23:21:35 11° NE 23:22:36 10° NE
Cosmos 1943 4.4 23:19:15 10° SSE 23:23:22 21° ESE 23:27:28 10° ENE
Centaur D AC-29 4.1 13:19:45 10° W 23:24:23 61° NNE 23:32:18 12° E
GPS 2-12 Rocket1 3.8 23:20:38 10° WSW 23:25:07 41° S 23:29:07 12° ESE
Cosmos 1818 4.4 23:22:57 10° S 23:27:32 28° ESE 23:32:06 10° ENE
S3M 4.2 23:30:06 10° S 23:36:22 78° W 23:42:40 10° N
SWIFT 3.4 23:34:13 10° WSW 23:38:10 37° S 23:41:21 15° SE
In-Cosmos 22 4.4 23:33:22 10° NNE 23:38:27 43° E 23:43:29 10° SSE
H-2A R/B 3.3 23:37:27 10° W 23:39:39 14° NW 23:41:03 10° NNW
SL-16 R/B 4.0 23:34:52 10° SW 23:39:57 34° WNW 23:45:02 10° NNW
BREEZE-M DEB (TANK) 3.0 23:35:31 10° NW 23:42:22 90° WNW 23:44:50 15° SE
CSL-04 Rocket 4.2 23:38:26 10° SE 23:43:25 36° E 23:48:19 10° NNE
Centaur AC-125 3.4 23:39:45 10° WSW 23:45:28 41° NW 23:47:31 14° NE
Lacrosse 4 Rocket 2.1 23:42:23 10° N 23:46:16 33° ENE 23:48:35 19° SE
Cosmos 1544 Rocket 3.4 23:43:06 10° S 23:47:28 80° E 23:51:48 10° N
NOSS 3-3 (A) 4.4 23:43:46 10° SW 23:49:23 55° WNW 23:54:48 10° N
NOSS 3-3 (C) 4.4 23:43:52 10° SW 23:49:29 56° WNW 23:54:55 10° N
NOAA 11 4.1 23:44:28 10° SSE 23:49:53 70° E 23:55:16 10° N
Hubble Space Telescope 2.3 23:49:35 10° W 23:53:17 31° NNW 23:56:29 13° NNE
